Weather History for Moose Lake, MN

Change the Weather History Date:

Friday, January 31, 2014

  Actual Average Record
Temperature  
Mean Temperature -7 °F -  
Max Temperature 8 °F 23 °F 45 °F (1993)
Min Temperature -22 °F -1 °F -40 °F (1982)
Degree Days  
Heating Degree Days 72    
Moisture  
Dew Point -15 °F    
Average Humidity 66    
Maximum Humidity 84    
Minimum Humidity 47    
Precipitation  
Precipitation 0.00 in - - ()
Sea Level Pressure  
Sea Level Pressure 29.97 in    
Wind  
Wind Speed 5 mph (SW)    
Max Wind Speed 15 mph    
Max Gust Speed 22 mph    
Visibility 10 miles    
Events      
Averages and records for this station are not official NWS values.
T = Trace of Precipitation, MM = Missing Value Source: NWS Daily Summary

Daily Weather History Graph

Daily Weather History Graph

Search for Another Location

Airport:

Trip Planner

Search our weather history database for the weather conditions in past years. The results will help you decide how hot, cold, wet, or windy it might be!

Date:

Astronomy

Jan. 31, 2014 Rise Set
Actual Time 7:35 AM CST 5:14 PM CST
Civil Twilight 7:03 AM CST 5:46 PM CST
Nautical Twilight 6:27 AM CST 6:22 PM CST
Astronomical Twilight 5:52 AM CST 6:57 PM CST
Moon 7:39 AM CST (1/31) 6:46 PM CST (1/31)
Length of Visible Light 10h 42m
Length of Day
9h 38m
New Moon, 1% of the Moon is Illuminated
Jan 31
New Moon
Feb 6
First Quarter
Feb 14
Full
Feb 22
Last Quarter
Mar 1
New

Hourly Weather History & Observations

Time (CST) Temp. Windchill Dew Point Humidity Pressure Visibility Wind Dir Wind Speed Gust Speed Precip Events Conditions
12:08 AM -7.6 °F -16.5 °F -18.4 °F 59% 29.94 in 10.0 mi West 3.5 mph - N/A   Clear
12:28 AM -9.4 °F -20.9 °F -18.4 °F 65% 29.96 in 10.0 mi SW 4.6 mph - N/A   Clear
12:48 AM -9.4 °F -18.6 °F -18.4 °F 65% 29.96 in 10.0 mi West 3.5 mph - N/A   Clear
1:09 AM -9.4 °F - -18.4 °F 65% 29.96 in 10.0 mi Calm Calm - N/A   Clear
1:28 AM -11.2 °F -20.6 °F -18.4 °F 70% 29.96 in 10.0 mi WSW 3.5 mph - N/A   Clear
1:48 AM -13.0 °F -22.7 °F -18.4 °F 77% 29.98 in 10.0 mi SW 3.5 mph - N/A   Clear
2:08 AM -13.0 °F -27.0 °F -18.4 °F 77% 29.98 in 10.0 mi SSW 5.8 mph - N/A   Clear
2:28 AM -13.0 °F -22.7 °F -18.4 °F 77% 29.98 in 10.0 mi SW 3.5 mph - N/A   Clear
2:49 AM -14.8 °F -29.1 °F -20.2 °F 77% 29.98 in 10.0 mi SW 5.8 mph - N/A   Clear
3:08 AM -14.8 °F -27.2 °F -22.0 °F 70% 29.98 in 10.0 mi WSW 4.6 mph - N/A   Clear
3:28 AM -14.8 °F -27.2 °F -20.2 °F 77% 29.98 in 10.0 mi WSW 4.6 mph - N/A   Clear
3:48 AM -13.0 °F -25.1 °F -18.4 °F 77% 29.98 in 10.0 mi WSW 4.6 mph - N/A   Scattered Clouds
4:08 AM -14.8 °F -29.1 °F -20.2 °F 77% 29.99 in 10.0 mi SW 5.8 mph - N/A   Clear
4:29 AM -14.8 °F -24.8 °F -22.0 °F 70% 29.98 in 10.0 mi SW 3.5 mph - N/A   Clear
4:48 AM -14.8 °F -27.2 °F -20.2 °F 77% 29.98 in 10.0 mi SW 4.6 mph - N/A   Clear
5:08 AM -16.6 °F -29.3 °F -22.0 °F 76% 29.98 in 10.0 mi SW 4.6 mph - N/A   Clear
5:28 AM -16.6 °F -26.8 °F -22.0 °F 76% 29.99 in 10.0 mi SSW 3.5 mph - N/A   Clear
5:48 AM -18.4 °F - -23.8 °F 76% 29.99 in 10.0 mi Calm Calm - N/A   Clear
6:09 AM -16.6 °F -26.8 °F -23.8 °F 70% 29.98 in 10.0 mi SSW 3.5 mph - N/A   Clear
6:28 AM -20.2 °F -30.9 °F -25.6 °F 76% 29.98 in 10.0 mi West 3.5 mph - N/A   Clear
6:48 AM -18.4 °F -28.9 °F -25.6 °F 70% 29.99 in 10.0 mi SSW 3.5 mph - N/A   Clear
7:08 AM -18.4 °F - -25.6 °F 70% 29.99 in 10.0 mi Calm Calm - N/A   Clear
7:28 AM -20.2 °F -30.9 °F -25.6 °F 76% 30.00 in 10.0 mi WSW 3.5 mph - N/A   Clear
7:48 AM -20.2 °F - -27.4 °F 69% 30.00 in 10.0 mi Calm Calm - N/A   Clear
8:09 AM -22.0 °F - -27.4 °F 76% 30.00 in 10.0 mi Calm Calm - N/A   Clear
8:28 AM -18.4 °F - -25.6 °F 70% 30.01 in 10.0 mi Calm Calm - N/A   Clear
8:48 AM -16.6 °F -29.3 °F -23.8 °F 70% 30.01 in 10.0 mi SW 4.6 mph - N/A   Clear
9:08 AM -13.0 °F - -18.4 °F 77% 30.01 in 10.0 mi Calm Calm - N/A   Clear
9:28 AM -9.4 °F -20.9 °F -16.6 °F 71% 30.01 in 10.0 mi SW 4.6 mph - N/A   Clear
9:48 AM -7.6 °F - -16.6 °F 65% 30.01 in 10.0 mi Calm Calm - N/A   Clear
10:08 AM -5.8 °F -14.5 °F -14.8 °F 65% 30.01 in 10.0 mi SW 3.5 mph - N/A   Clear
10:28 AM -4.0 °F -16.3 °F -13.0 °F 65% 30.01 in 10.0 mi West 5.8 mph - N/A   Clear
10:48 AM -0.4 °F -14.7 °F -13.0 °F 55% 30.01 in 10.0 mi West 8.1 mph - N/A   Clear
11:09 AM -0.4 °F -12.0 °F -13.0 °F 55% 30.01 in 10.0 mi WSW 5.8 mph - N/A   Clear
11:28 AM 1.4 °F -13.5 °F -14.8 °F 47% 30.01 in 10.0 mi WSW 9.2 mph - N/A   Clear
11:48 AM 1.4 °F -13.5 °F -13.0 °F 51% 30.00 in 10.0 mi WSW 9.2 mph - N/A   Clear
12:09 PM 3.2 °F -13.1 °F -11.2 °F 51% 29.99 in 10.0 mi SW 11.5 mph 16.1 mph N/A   Clear
12:29 PM 5.0 °F -10.8 °F -11.2 °F 47% 29.99 in 10.0 mi SW 11.5 mph - N/A   Clear
12:48 PM 5.0 °F -12.3 °F -11.2 °F 47% 29.99 in 10.0 mi WSW 13.8 mph - N/A   Clear
1:08 PM 5.0 °F -13.0 °F -9.4 °F 52% 29.99 in 10.0 mi SW 15.0 mph 20.7 mph N/A   Clear
1:28 PM 5.0 °F -12.3 °F -9.4 °F 52% 29.98 in 10.0 mi SW 13.8 mph - N/A   Clear
1:48 PM 5.0 °F -10.0 °F -9.4 °F 52% 29.97 in 10.0 mi WSW 10.4 mph 18.4 mph N/A   Clear
2:09 PM 6.8 °F -7.8 °F -9.4 °F 48% 29.96 in 10.0 mi WSW 10.4 mph - N/A   Clear
2:28 PM 8.6 °F -6.3 °F -7.6 °F 48% 29.96 in 10.0 mi WSW 11.5 mph 16.1 mph N/A   Clear
2:48 PM 8.6 °F -6.3 °F -7.6 °F 48% 29.95 in 10.0 mi SW 11.5 mph - N/A   Clear
3:08 PM 8.6 °F -7.0 °F -5.8 °F 52% 29.95 in 10.0 mi WSW 12.7 mph 18.4 mph N/A   Clear
3:28 PM 8.6 °F -7.7 °F -7.6 °F 48% 29.95 in 10.0 mi WSW 13.8 mph 21.9 mph N/A   Clear
3:48 PM 8.6 °F -4.7 °F -7.6 °F 48% 29.95 in 10.0 mi WSW 9.2 mph - N/A   Clear
4:08 PM 8.6 °F -3.7 °F -7.6 °F 48% 29.95 in 10.0 mi SSW 8.1 mph - N/A   Clear
4:28 PM 6.8 °F -5.9 °F -7.6 °F 52% 29.94 in 10.0 mi SSW 8.1 mph - N/A   Clear
4:48 PM 5.0 °F -9.1 °F -9.4 °F 52% 29.94 in 10.0 mi SSW 9.2 mph - N/A   Clear
5:08 PM 5.0 °F -8.1 °F -7.6 °F 56% 29.94 in 10.0 mi SSW 8.1 mph - N/A   Clear
5:28 PM 3.2 °F -12.2 °F -7.6 °F 61% 29.94 in 10.0 mi SSW 10.4 mph - N/A   Clear
5:48 PM 3.2 °F -11.3 °F -7.6 °F 61% 29.93 in 10.0 mi SSW 9.2 mph - N/A   Clear
6:08 PM 3.2 °F -11.3 °F -7.6 °F 61% 29.94 in 10.0 mi SSW 9.2 mph - N/A   Clear
6:29 PM 1.4 °F -13.5 °F -7.6 °F 66% 29.93 in 10.0 mi SSW 9.2 mph - N/A   Clear
6:49 PM 1.4 °F -12.5 °F -7.6 °F 66% 29.94 in 10.0 mi SSW 8.1 mph - N/A   Clear
7:08 PM 1.4 °F -11.3 °F -7.6 °F 66% 29.94 in 10.0 mi SSW 6.9 mph - N/A   Clear
7:28 PM -0.4 °F -12.0 °F -9.4 °F 66% 29.95 in 10.0 mi SSW 5.8 mph - N/A   Clear
7:48 PM -0.4 °F -12.0 °F -9.4 °F 66% 29.95 in 10.0 mi SSW 5.8 mph - N/A   Clear
8:08 PM -2.2 °F -10.4 °F -9.4 °F 71% 29.95 in 10.0 mi SSW 3.5 mph - N/A   Clear
8:28 PM -2.2 °F - -9.4 °F 71% 29.94 in 10.0 mi Calm Calm - N/A   Clear
8:49 PM -4.0 °F -12.4 °F -9.4 °F 78% 29.94 in 10.0 mi SSW 3.5 mph - N/A   Clear
9:08 PM -5.8 °F - -9.4 °F 84% 29.93 in 10.0 mi Calm Calm - N/A   Clear
9:28 PM -7.6 °F -16.5 °F -13.0 °F 77% 29.94 in 10.0 mi SW 3.5 mph - N/A   Clear
9:49 PM -7.6 °F -16.5 °F -13.0 °F 77% 29.94 in 10.0 mi SSW 3.5 mph - N/A   Clear
10:08 PM -7.6 °F - -13.0 °F 77% 29.94 in 10.0 mi Calm Calm - N/A   Clear
10:28 PM -7.6 °F - -11.2 °F 84% 29.94 in 10.0 mi Calm Calm - N/A   Clear
10:49 PM -7.6 °F -16.5 °F -11.2 °F 84% 29.95 in 10.0 mi SSW 3.5 mph - N/A   Clear
11:08 PM -7.6 °F - -13.0 °F 77% 29.94 in 10.0 mi Calm Calm - N/A   Mostly Cloudy
11:28 PM -7.6 °F - -11.2 °F 84% 29.93 in 10.0 mi Calm Calm - N/A   Scattered Clouds
11:48 PM -9.4 °F -18.6 °F -13.0 °F 84% 29.93 in 10.0 mi South 3.5 mph - N/A   Clear